Stations météo

réclame
Mon MeteoGroup
Huesca, Espagne (8094): Température de l'air & dewpoint: 13.11.2017 20:00:00 - 19.11.2017 20:00:00 (CET)Huesca, Espagne (8094): Vitesse du vent: 13.11.2017 20:00:00 - 19.11.2017 20:00:00 (CET)Huesca, Espagne (8094): Direction du vent: 13.11.2017 20:00:00 - 19.11.2017 20:00:00 (CET)Huesca, Espagne (8094): reduced air pressure: 13.11.2017 20:00:00 - 19.11.2017 20:00:00 (CET)Huesca, Espagne (8094): visibility: 13.11.2017 20:00:00 - 19.11.2017 20:00:00 (CET)Huesca, Espagne (8094): Quantités de précipitations: 13.11.2017 20:00:00 - 19.11.2017 20:00:00 (CET)
Date & Time tt [°C] td [°C] ff [km/h] ff [knt] dd ppp [hPa] vv [km] rr [mm]
19.11.2017 20:00:00 6,2 1,3 5 3 NE 1023,2 - 0,0
19.11.2017 19:00:00 7,5 1,8 4 2 WSW 1022,8 - -
19.11.2017 18:00:00 8,6 1,5 4 2 WSW 1022,0 - 0,0
19.11.2017 17:00:00 10,8 1,3 5 3 WSW 1021,3 - 0,0
19.11.2017 16:00:00 11,7 0,4 9 5 WSW 1020,9 25 -
19.11.2017 15:00:00 12,0 1,0 8 4 W 1020,8 - 0,0
19.11.2017 14:00:00 11,9 3,6 5 3 W 1021,2 - 0,0
19.11.2017 13:00:00 10,5 4,0 4 2 W 1022,3 25 -
19.11.2017 12:00:00 8,7 3,9 4 2 W 1023,2 - 0,0
19.11.2017 11:00:00 6,4 3,2 5 3 W 1023,9 - 0,0
19.11.2017 10:00:00 4,8 2,5 4 2 W 1024,0 30 -
19.11.2017 09:00:00 2,9 1,7 4 2 W 1024,1 - 0,0
19.11.2017 08:00:00 2,4 1,2 4 2 SW 1023,9 - 0,0
19.11.2017 07:00:00 3,7 1,9 5 3 NNW 1022,8 - -
19.11.2017 06:00:00 4,0 2,0 4 2 W 1022,9 - 0,0
19.11.2017 05:00:00 4,6 2,3 5 3 NW 1022,9 - 0,0
19.11.2017 04:00:00 4,6 2,3 5 3 NW 1023,0 - -
19.11.2017 03:00:00 5,3 2,6 8 4 ENE 1022,7 - 0,0
19.11.2017 02:00:00 4,7 2,6 5 3 ENE 1023,1 - 0,0
19.11.2017 01:00:00 4,2 2,2 8 4 E 1023,2 - -
19.11.2017 00:00:00 4,6 2,5 8 4 E 1023,4 - 0,0
18.11.2017 23:00:00 5,3 2,8 5 3 ENE 1023,2 - 0,0
18.11.2017 22:00:00 5,9 2,7 5 3 E 1023,1 - -
18.11.2017 21:00:00 6,0 2,6 5 3 ENE 1022,7 - 0,0
18.11.2017 20:00:00 7,9 3,0 5 3 ESE 1022,0 - 0,0
18.11.2017 19:00:00 9,6 4,0 4 2 WSW 1021,0 - -
18.11.2017 18:00:00 11,5 3,5 4 2 WSW 1020,2 - 0,0
18.11.2017 17:00:00 13,8 3,5 4 2 WSW 1019,3 - 0,0
18.11.2017 16:00:00 14,5 3,3 5 3 W 1019,0 25 -
18.11.2017 15:00:00 14,4 3,5 5 3 W 1019,2 - 0,0
18.11.2017 14:00:00 14,0 3,4 8 4 WSW 1019,8 - 0,0
18.11.2017 13:00:00 12,8 3,2 5 3 SSW 1020,5 25 -
18.11.2017 12:00:00 11,3 3,1 5 3 WSW 1021,3 - 0,0
18.11.2017 11:00:00 10,2 3,0 5 3 SSE 1021,4 - 0,0
18.11.2017 10:00:00 6,2 2,3 4 2 S 1022,1 25 -
18.11.2017 09:00:00 4,5 2,2 2 1 ESE 1022,0 - 0,0
18.11.2017 08:00:00 4,2 1,2 5 3 NW 1021,6 - 0,0
18.11.2017 07:00:00 4,8 1,1 5 3 WNW 1021,3 - -
18.11.2017 06:00:00 4,7 0,8 5 3 NW 1021,2 - 0,0
18.11.2017 05:00:00 3,8 0,3 5 3 E 1021,3 - 0,0
18.11.2017 04:00:00 4,4 0,5 5 3 E 1021,3 - -
18.11.2017 03:00:00 4,7 0,5 4 2 NE 1021,4 - 0,0
18.11.2017 02:00:00 4,9 0,5 5 3 ENE 1021,3 - 0,0
18.11.2017 01:00:00 5,4 0,6 5 3 E 1021,5 - -
18.11.2017 00:00:00 5,6 0,8 4 2 S 1021,8 - 0,0
17.11.2017 23:00:00 6,1 0,6 2 1 NNE 1021,6 - 0,0
17.11.2017 22:00:00 6,5 0,8 4 2 E 1021,0 - -
17.11.2017 21:00:00 7,1 0,7 5 3 E 1020,8 - 0,0
17.11.2017 20:00:00 8,1 0,8 4 2 S 1020,4 - 0,0
17.11.2017 19:00:00 9,4 0,8 4 2 W 1020,0 - -
17.11.2017 18:00:00 10,9 0,6 4 2 W 1019,3 - 0,0
17.11.2017 17:00:00 13,3 1,3 4 2 WSW 1018,8 - 0,0
17.11.2017 16:00:00 14,0 0,9 5 3 WNW 1018,8 23 -
17.11.2017 15:00:00 13,9 0,8 5 3 W 1019,0 - 0,0
17.11.2017 14:00:00 13,7 0,7 5 3 W 1019,5 - 0,0
17.11.2017 13:00:00 12,3 0,7 4 2 W 1020,6 25 -
17.11.2017 12:00:00 11,1 0,8 4 2 S 1021,4 - 0,0
17.11.2017 11:00:00 8,9 1,1 5 3 WSW 1022,2 - 0,0
17.11.2017 10:00:00 7,1 0,7 8 4 WSW 1022,5 25 -
17.11.2017 09:00:00 4,3 0,4 0 0 N 1022,8 - 0,0
17.11.2017 08:00:00 2,7 -0,9 2 1 ENE 1023,0 - 0,0
17.11.2017 07:00:00 3,5 -0,9 4 2 WNW 1022,4 - -
17.11.2017 06:00:00 3,7 -0,9 5 3 NW 1022,3 - 0,0
17.11.2017 05:00:00 3,6 -1,4 4 2 NE 1022,4 - 0,0
17.11.2017 04:00:00 3,7 -1,3 4 2 ENE 1022,4 - -
17.11.2017 03:00:00 4,1 -1,3 4 2 E 1022,6 - 0,0
17.11.2017 02:00:00 4,3 -1,1 5 3 ENE 1022,5 - 0,0
17.11.2017 01:00:00 4,6 -1,2 4 2 SE 1022,6 - -
17.11.2017 00:00:00 5,2 -1,3 2 1 WSW 1022,3 - 0,0
16.11.2017 23:00:00 5,8 -1,1 2 1 SW 1022,2 - 0,0
16.11.2017 22:00:00 5,3 -1,0 4 2 S 1022,2 - -
16.11.2017 21:00:00 6,3 -0,7 4 2 SSW 1021,6 - 0,0
16.11.2017 20:00:00 7,1 -0,6 2 1 WNW 1021,3 - 0,0
16.11.2017 19:00:00 8,2 -0,3 4 2 WSW 1021,1 - -
16.11.2017 18:00:00 9,6 -0,1 4 2 SW 1020,4 - 0,0
16.11.2017 17:00:00 11,7 0,4 4 2 SW 1019,9 - 0,0
16.11.2017 16:00:00 12,9 0,6 4 2 WSW 1019,5 25 -
16.11.2017 15:00:00 13,4 0,4 5 3 SW 1019,5 - 0,0
16.11.2017 14:00:00 13,6 0,9 4 2 SW 1019,9 - 0,0
16.11.2017 13:00:00 12,4 0,2 4 2 SSE 1020,6 40 -
16.11.2017 12:00:00 11,0 0,4 4 2 WSW 1021,6 - 0,0
16.11.2017 11:00:00 10,1 0,4 5 3 SW 1021,8 - 0,0
16.11.2017 10:00:00 8,1 -1,2 4 2 NW 1021,9 40 -
16.11.2017 09:00:00 5,8 -1,1 4 2 NW 1021,9 - 0,0
16.11.2017 08:00:00 4,3 -1,7 4 2 NW 1021,7 - 0,0
16.11.2017 07:00:00 4,7 -1,8 5 3 NW 1021,3 - -
16.11.2017 06:00:00 4,2 -1,4 5 3 NNW 1021,2 - 0,0
16.11.2017 05:00:00 3,1 -1,5 4 2 W 1021,3 - 0,0
16.11.2017 04:00:00 3,1 -1,5 4 2 ENE 1021,4 - -
16.11.2017 03:00:00 3,8 -1,4 8 4 ENE 1021,3 - 0,0
16.11.2017 02:00:00 4,8 -1,2 8 4 ENE 1021,2 - 0,0
16.11.2017 01:00:00 4,4 -1,0 9 5 ENE 1021,6 - -
16.11.2017 00:00:00 4,3 -1,1 8 4 ENE 1021,5 - 0,0
15.11.2017 23:00:00 4,1 -1,3 8 4 E 1021,3 - 0,0
15.11.2017 22:00:00 4,5 -1,9 9 5 E 1021,0 - -
15.11.2017 21:00:00 4,6 -3,4 5 3 E 1020,7 - 0,0
15.11.2017 20:00:00 6,3 -1,8 4 2 S 1019,8 - 0,0
15.11.2017 19:00:00 7,7 -2,9 2 1 SSW 1018,9 - -
15.11.2017 18:00:00 8,7 -3,2 4 2 WNW 1018,4 - 0,0
15.11.2017 17:00:00 10,2 -3,2 4 2 W 1018,1 - 0,0
15.11.2017 16:00:00 - - - - - - - -
15.11.2017 15:00:00 - - - - - - - -
15.11.2017 14:00:00 - - - - - - - -
15.11.2017 13:00:00 - - - - - - - -
15.11.2017 12:00:00 - - - - - - - -
15.11.2017 11:00:00 - - - - - - - -
15.11.2017 10:00:00 - - - - - - - -
15.11.2017 09:00:00 - - - - - - - -
15.11.2017 08:00:00 - - - - - - - -
15.11.2017 07:00:00 - - - - - - - -
15.11.2017 06:00:00 - - - - - - - -
15.11.2017 05:00:00 - - - - - - - -
15.11.2017 04:00:00 - - - - - - - -
15.11.2017 03:00:00 - - - - - - - -
15.11.2017 02:00:00 - - - - - - - -
15.11.2017 01:00:00 - - - - - - - -
15.11.2017 00:00:00 - - - - - - - -
14.11.2017 23:00:00 - - - - - - - -
14.11.2017 22:00:00 - - - - - - - -
14.11.2017 21:00:00 - - - - - - - -
14.11.2017 20:00:00 - - - - - - - -
14.11.2017 19:00:00 - - - - - - - -
14.11.2017 18:00:00 - - - - - - - -
14.11.2017 17:00:00 - - - - - - - -
14.11.2017 16:00:00 - - - - - - - -
14.11.2017 15:00:00 - - - - - - - -
14.11.2017 14:00:00 - - - - - - - -
14.11.2017 13:00:00 11,7 -4,1 8 4 W 1018,4 75 -
14.11.2017 12:00:00 9,2 -3,1 5 3 WNW 1019,5 - 0,0
14.11.2017 11:00:00 7,0 -3,3 8 4 W 1020,0 - 0,0
14.11.2017 10:00:00 4,6 -3,9 5 3 WNW 1020,3 75 -
14.11.2017 09:00:00 2,6 -4,0 8 4 W 1020,4 - 0,0
14.11.2017 08:00:00 1,0 -5,7 4 2 WNW 1020,1 - 0,0
14.11.2017 07:00:00 1,6 -5,6 4 2 WNW 1019,2 - -
14.11.2017 06:00:00 1,3 -7,2 5 3 WNW 1018,9 - 0,0
14.11.2017 05:00:00 2,0 -7,1 5 3 W 1018,6 - 0,0
14.11.2017 04:00:00 1,7 -7,4 8 4 WSW 1018,8 - -
14.11.2017 03:00:00 1,9 -7,7 4 2 WNW 1019,3 - 0,0
14.11.2017 02:00:00 2,0 -8,2 5 3 WNW 1019,3 - 0,0
14.11.2017 01:00:00 2,2 -7,2 5 3 WSW 1019,7 - -
14.11.2017 00:00:00 3,1 -8,0 5 3 W 1019,5 - 0,0
13.11.2017 23:00:00 2,9 -6,8 4 2 W 1019,6 - 0,0
13.11.2017 22:00:00 3,4 -7,1 5 3 W 1019,5 - -
13.11.2017 21:00:00 4,1 -7,1 5 3 W 1018,9 - 0,0
13.11.2017 20:00:00 4,8 -6,4 8 4 W 1018,6 - 0,0

tt = Température de l'air
td = dewpoint
ff = Vitesse du vent
dd = Direction du vent
ppp = reduced air pressure
vv = visibility
rr = Quantités de précipitations

stations d'obs. à proximité